Location: Winter Haven
(28.0220°N, 81.7330°W)
Time: 01:50:16
(UTC-04:00)

Amateur Radio Satellites - All Passes

Search period start: 30 March 2015 01:20
Search period end: 31 March 2015 01:20
Location: Winter Haven, 28.0220°N, 81.7330°W

Satellite Date Start Highest point End Downlink Frequencies (MHz)
Time Altitude Azimuth
YUBILEINY 30 Mar 01:26:04 01:34:29 49° 79° (E) 01:42:54 435.215
PCSat 30 Mar 01:31:39 01:37:04 76° 247° (WSW) 01:42:27 145.827
SWISSCUBE 30 Mar 01:52:56 01:57:20 37° 74° (ENE) 02:01:46 437.505
Oscar 19 30 Mar 01:53:15 01:56:36 18° 94° (E) 02:00:10 437.125/150
BEESAT 30 Mar 01:55:51 02:00:12 37° 74° (ENE) 02:04:38 436.000
RS-15 30 Mar 02:39:44 02:42:16 11° 30° (NNE) 02:45:42 29.354- 29.394
ITUPSAT 1 30 Mar 02:42:36 02:47:22 63° 259° (W) 02:52:09 437.325
ITAMSAT 1 30 Mar 02:59:13 03:03:22 25° 96° (E) 03:07:38 435.822/435.867
YUBILEINY 30 Mar 03:23:49 03:30:57 27° 273° (W) 03:37:42 435.215
Oscar 19 30 Mar 03:31:19 03:36:06 38° 287° (WNW) 03:40:50 437.125/150
KKS-1 30 Mar 03:32:20 03:36:46 79° 77° (ENE) 03:41:12 437.445
SWISSCUBE 30 Mar 03:32:22 03:35:20 16° 266° (W) 03:38:05 437.505
O/OREOS (USA 219) 30 Mar 03:33:17 03:36:11 17° 102° (ESE) 03:39:17 437.305
BEESAT 30 Mar 03:35:11 03:38:12 16° 266° (W) 03:40:59 436.000
Gurwin Techsat 1B 30 Mar 03:50:31 03:55:49 73° 101° (E) 04:01:08 435.225
SO-50 30 Mar 03:52:46 03:55:18 14° 51° (NE) 03:58:04 436.795
AO-7 30 Mar 03:57:31 04:00:54 14° 92° (E) 04:05:01 29.400- 29.500
STARS 30 Mar 04:03:04 04:07:26 71° 259° (WSW) 04:11:49 437.465
HORYU 2 30 Mar 04:08:05 04:11:19 20° 95° (E) 04:14:42 437.375
JAS-2 30 Mar 04:12:08 04:15:34 14° 87° (E) 04:19:25 435.910
ITAMSAT 1 30 Mar 04:38:28 04:42:50 27° 288° (WNW) 04:47:05 435.822/435.867
RS-15 30 Mar 04:47:22 04:58:30 51° 57° (ENE) 05:10:11 29.354- 29.394
VERMONT LUNAR 30 Mar 04:52:21 04:55:42 84° 144° (SE) 04:59:02 437.305
AIST 1 30 Mar 05:00:05 05:04:28 71° 276° (W) 05:08:52
O/OREOS (USA 219) 30 Mar 05:11:21 05:15:25 30° 293° (WNW) 05:19:26 437.305
MOZHAYETS 4 30 Mar 05:11:41 05:16:04 46° 75° (ENE) 05:20:30
SO-50 30 Mar 05:31:26 05:36:16 54° 246° (WSW) 05:40:59 436.795
PHONESAT 2.4 30 Mar 05:37:57 05:41:27 75° 147° (SSE) 05:44:58 2401.200-2431.200
HORYU 2 30 Mar 05:44:10 05:47:57 26° 287° (WNW) 05:51:38 437.375
AO-7 30 Mar 05:46:18 05:54:37 85° 287° (WNW) 06:02:56 29.400- 29.500
AUBIESAT-1 30 Mar 05:48:11 05:51:54 48° 71° (ENE) 05:56:00 437.475
GONETS M04 30 Mar 05:48:50 05:50:06 11° 65° (ENE) 05:52:20
JAS-2 30 Mar 05:53:55 06:01:32 76° 285° (WNW) 06:08:21 435.910
M-CUBED/EXP-1 PRIME 30 Mar 06:13:10 06:16:58 64° 256° (WSW) 06:21:07 437.505
STRAND 1 30 Mar 06:29:47 06:31:35 12° 69° (ENE) 06:33:44 437.568
VERMONT LUNAR 30 Mar 06:31:17 06:33:41 18° 342° (NNW) 06:36:03 437.305
MOZHAYETS 4 30 Mar 06:51:54 06:53:35 11° 269° (W) 06:54:56
RS-15 30 Mar 07:00:12 07:10:47 39° 251° (WSW) 07:21:23 29.354- 29.394
CUBESAT XI-V 30 Mar 07:00:32 07:05:04 51° 76° (ENE) 07:09:39 437.345
CUTE-I 30 Mar 07:04:13 07:08:51 31° 97° (E) 07:13:34 437.470
Cubesat XI-IV 30 Mar 07:04:35 07:09:17 32° 97° (E) 07:14:01 437.490
ISS 30 Mar 07:11:57 07:15:09 69° 228° (SW) 07:18:20 145.825
PHONESAT 2.4 30 Mar 07:17:20 07:20:03 20° 341° (NNW) 07:22:45 2401.200-2431.200
PRISM 30 Mar 07:31:10 07:35:22 80° 258° (WSW) 07:39:36 437.425
CUSAT 1 30 Mar 07:38:24 07:41:01 14° 79° (ENE) 07:44:20 437.405
GONETS M04 30 Mar 07:39:39 07:48:32 81° 84° (E) 07:57:23
AO-7 30 Mar 07:42:28 07:46:30 14° 300° (WNW) 07:49:56 29.400- 29.500
JAS-2 30 Mar 07:43:59 07:45:24 10° 298° (WNW) 07:46:09 435.910
STRAND 1 30 Mar 08:05:19 08:10:22 58° 259° (W) 08:15:27 437.568
DANDE 30 Mar 08:30:41 08:34:58 37° 82° (E) 08:40:40 436.750
CUBESAT XI-V 30 Mar 08:41:35 08:42:51 11° 269° (W) 08:43:45 437.345
CUTE-I 30 Mar 08:44:37 08:48:48 23° 289° (WNW) 08:52:49 437.470
Cubesat XI-IV 30 Mar 08:45:05 08:49:13 23° 289° (WNW) 08:53:12 437.490
HO-68 30 Mar 08:45:42 08:48:47 14° 92° (E) 08:52:27 435.675
PHONESAT 2.4 30 Mar 08:58:21 08:59:17 11° 358° (N) 09:00:14 2401.200-2431.200
CUSAT 1 30 Mar 09:18:50 09:23:39 50° 263° (W) 09:29:57 437.405
COMPASS 1 30 Mar 09:19:13 09:19:51 10° 91° (E) 09:20:48 437.405
BEESAT 3 30 Mar 09:19:29 09:21:00 12° 109° (ESE) 09:22:45 437.485
BRITE-PL 30 Mar 09:37:59 09:42:15 66° 101° (ESE) 09:46:47 437.365/2234.400
GONETS M04 30 Mar 09:39:52 09:44:36 15° 276° (W) 09:48:35
CINEMA 3 30 Mar 09:40:32 09:42:27 13° 93° (E) 09:44:42 145.822/145.860
CANX-2 30 Mar 09:48:47 09:52:58 48° 99° (E) 09:57:09 2200.000
VERMONT LUNAR 30 Mar 09:48:56 09:50:56 15° 15° (NNE) 09:52:58 437.305
CUTE 1.7 + AOD 2 30 Mar 10:02:30 10:06:47 67° 100° (E) 10:11:04 437.475
DOVE 4 30 Mar 10:05:03 10:09:25 56° 100° (E) 10:14:03 437.250
DANDE 30 Mar 10:14:58 10:18:21 17° 263° (W) 10:22:01 436.750
BEESAT 2 30 Mar 10:18:39 10:22:40 60° 115° (ESE) 10:26:45 435.950
GOMX 1 30 Mar 10:20:25 10:24:43 59° 283° (WNW) 10:29:17 467.674
AAUSAT CUBESAT 2 30 Mar 10:23:44 10:27:57 68° 100° (E) 10:32:08 437.432
HO-68 30 Mar 10:30:01 10:37:13 76° 286° (WNW) 10:44:22 435.675
SEEDS 30 Mar 10:30:30 10:34:44 64° 283° (WNW) 10:38:57 437.485
UNISAT 6 30 Mar 10:31:56 10:34:32 16° 72° (ENE) 10:37:18 437.425
PHONESAT 2.4 30 Mar 10:36:24 10:38:37 16° 15° (NNE) 10:40:51 2401.200-2431.200
DX 1 30 Mar 10:39:36 10:41:46 14° 94° (E) 10:44:10 434.975-435.025
TIGRISAT 30 Mar 10:41:13 10:44:20 21° 73° (ENE) 10:47:35 435.000
COMPASS 1 30 Mar 10:51:46 10:55:48 42° 284° (WNW) 10:59:47 437.405
BEESAT 3 30 Mar 10:54:57 10:58:45 36° 300° (WNW) 11:02:34 437.485
Oscar 11 30 Mar 10:55:35 10:59:56 73° 101° (E) 11:04:17 145.826/435.025
QB50P1 30 Mar 10:59:20 11:01:59 17° 72° (ENE) 11:04:48 145.935-145.965
DUCHIFAT 1 30 Mar 11:00:38 11:03:19 17° 72° (ENE) 11:06:08 145.980
50 SAT 30 Mar 11:07:40 11:08:56 11° 93° (E) 11:10:28 437.505
FUNcube-1 30 Mar 11:07:51 11:12:07 47° 99° (E) 11:16:30 145.935
ANTELSAT 30 Mar 11:10:54 11:15:01 52° 76° (ENE) 11:19:13 437.575/2403.000
QB50P2 30 Mar 11:13:36 11:17:05 26° 74° (ENE) 11:20:40 145.880/145.840
UWE-3 30 Mar 11:14:21 11:18:50 77° 102° (ESE) 11:23:25 435.000/436.395/437.385
CINEMA 3 30 Mar 11:15:34 11:19:48 41° 284° (WNW) 11:24:13 145.822/145.860
ZACube-1 30 Mar 11:20:58 11:25:24 73° 101° (ESE) 11:29:55 437.345
CUBEBUG 2 30 Mar 11:21:18 11:25:46 70° 283° (WNW) 11:30:23 437.445
VELOX 1 30 Mar 11:22:29 11:25:31 19° 95° (E) 11:28:42 145.980
VERMONT LUNAR 30 Mar 11:25:44 11:29:04 63° 30° (NNE) 11:32:24 437.305
AISAT 30 Mar 11:27:15 11:30:40 22° 96° (E) 11:34:11 437.250
DELFI C3 30 Mar 11:33:13 11:37:09 45° 284° (WNW) 11:41:02 145.870
AIST 2 30 Mar 11:35:52 11:39:58 50° 299° (WNW) 11:44:08 435.215
BUGSAT 1 30 Mar 11:36:07 11:39:52 34° 75° (ENE) 11:43:39 437.445
JUGNU 30 Mar 11:36:50 11:38:18 11° 160° (SSE) 11:39:56 437.505
POPSAT HIP 1 30 Mar 11:41:27 11:45:36 60° 77° (ENE) 11:49:46 437.405
NANOSAT C BR1 30 Mar 11:51:35 11:55:48 83° 78° (ENE) 12:00:01 145.865
POLYITAN 1 30 Mar 11:56:42 12:00:55 82° 258° (WSW) 12:05:08 437.675
ESTCUBE 1 30 Mar 11:59:41 12:03:25 26° 96° (E) 12:07:13 437.505/2401.250
UKube-1 30 Mar 12:02:30 12:06:41 50° 285° (WNW) 12:10:51 .
HUMSAT D 30 Mar 12:04:40 12:08:56 68° 283° (WNW) 12:13:12 437.325/437.525
UNISAT 6 30 Mar 12:07:27 12:11:09 28° 263° (W) 12:14:48 437.425
PHONESAT 2.4 30 Mar 12:13:55 12:17:25 61° 29° (NNE) 12:20:56 2401.200-2431.200
DX 1 30 Mar 12:14:13 12:18:08 33° 286° (WNW) 12:22:00 434.975-435.025
TIGRISAT 30 Mar 12:17:40 12:21:01 22° 265° (W) 12:24:16 435.000
QB50P1 30 Mar 12:34:05 12:37:42 27° 263° (W) 12:41:15 145.935-145.965
DUCHIFAT 1 30 Mar 12:35:23 12:38:59 26° 263° (W) 12:42:30 145.980
50 SAT 30 Mar 12:40:17 12:44:00 35° 285° (WNW) 12:47:41 437.505
FUNcube-1 30 Mar 12:46:43 12:48:09 11° 289° (WNW) 12:49:18 145.935
TISAT 1 30 Mar 12:47:46 12:50:03 15° 94° (E) 12:52:33 437.305
QB50P2 30 Mar 12:50:10 12:53:01 17° 266° (W) 12:55:42 145.880/145.840
CUBEBUG 1 30 Mar 12:54:57 12:59:15 69° 283° (WNW) 13:03:32 437.445
VELOX 1 30 Mar 12:58:24 13:02:05 26° 287° (WNW) 13:05:42 145.980
SPROUT 30 Mar 13:00:39 13:04:17 27° 97° (E) 13:07:59 437.525
AISAT 30 Mar 13:03:44 13:07:12 22° 287° (WNW) 13:10:31 437.250
VERMONT LUNAR 30 Mar 13:04:42 13:06:32 14° 220° (SW) 13:08:16 437.305
Oscar 19 30 Mar 13:04:49 13:06:56 13° 69° (ENE) 13:09:22 437.125/150
BUGSAT 1 30 Mar 13:13:30 13:15:29 13° 266° (W) 13:17:13 437.445
JUGNU 30 Mar 13:22:09 13:26:53 25° 166° (SSE) 13:31:42 437.505
ESTCUBE 1 30 Mar 13:36:49 13:40:09 20° 288° (WNW) 13:43:20 437.505/2401.250
O/OREOS (USA 219) 30 Mar 13:51:14 13:52:30 11° 60° (ENE) 13:54:02 437.305
PHONESAT 2.4 30 Mar 13:53:18 13:55:33 16° 220° (SW) 13:57:41 2401.200-2431.200
SWISSCUBE 30 Mar 14:01:21 14:04:22 17° 94° (E) 14:07:36 437.505
BEESAT 30 Mar 14:04:10 14:07:08 17° 94° (E) 14:10:19 436.000
ITAMSAT 1 30 Mar 14:11:02 14:14:38 20° 70° (ENE) 14:18:25 435.822/435.867
YUBILEINY 30 Mar 14:17:32 14:26:14 71° 93° (E) 14:35:01 435.215
TISAT 1 30 Mar 14:22:15 14:25:56 29° 286° (WNW) 14:29:33 437.305
PCSat 30 Mar 14:23:25 14:28:21 39° 109° (ESE) 14:33:23 145.827
SRMSAT 30 Mar 14:23:48 14:28:00 20° 164° (SSE) 14:32:15 437.500
SPROUT 30 Mar 14:37:21 14:40:12 17° 288° (WNW) 14:42:53 437.525
Oscar 19 30 Mar 14:40:56 14:45:54 53° 260° (W) 14:50:55 437.125/150
ITUPSAT 1 30 Mar 14:50:18 14:55:01 60° 100° (E) 14:59:44 437.325
AO-7 30 Mar 14:52:23 14:53:42 11° 58° (ENE) 14:55:46 29.400- 29.500
Gurwin Techsat 1B 30 Mar 15:04:38 15:09:48 58° 75° (ENE) 15:15:02 435.225
JUGNU 30 Mar 15:10:05 15:15:33 37° 175° (S) 15:21:01 437.505
AIST 1 30 Mar 15:16:17 15:18:28 14° 75° (ENE) 15:20:52
O/OREOS (USA 219) 30 Mar 15:27:54 15:32:16 47° 255° (WSW) 15:36:33 437.305
KKS-1 30 Mar 15:30:58 15:34:41 26° 97° (E) 15:38:28 437.445
SWISSCUBE 30 Mar 15:38:02 15:42:20 33° 286° (WNW) 15:46:33 437.505
BEESAT 30 Mar 15:40:46 15:45:06 34° 287° (WNW) 15:49:21 436.000
ITAMSAT 1 30 Mar 15:49:07 15:53:55 36° 262° (W) 15:58:41 435.822/435.867
JAS-2 30 Mar 15:58:19 16:03:32 25° 67° (ENE) 16:09:24 435.910
STARS 30 Mar 16:00:01 16:04:04 36° 99° (E) 16:08:09 437.465
PCSat 30 Mar 16:07:48 16:11:55 21° 303° (WNW) 16:15:53 145.827
SRMSAT 30 Mar 16:11:27 16:16:46 33° 172° (S) 16:22:06 437.500
YUBILEINY 30 Mar 16:17:59 16:23:55 18° 290° (WNW) 16:29:19 435.215
ITUPSAT 1 30 Mar 16:31:49 16:32:29 10° 291° (WNW) 16:32:49 437.325
HORYU 2 30 Mar 16:34:51 16:39:14 66° 259° (W) 16:43:39 437.375
AO-7 30 Mar 16:37:10 16:45:24 72° 72° (ENE) 16:53:41 29.400- 29.500
Gurwin Techsat 1B 30 Mar 16:48:06 16:50:12 12° 269° (W) 16:51:55 435.225
AIST 1 30 Mar 16:52:29 16:56:14 29° 268° (W) 16:59:54
JUGNU 30 Mar 16:58:49 17:04:16 36° 185° (S) 17:09:41 437.505
KKS-1 30 Mar 17:07:57 17:11:11 19° 288° (WNW) 17:14:16 437.445
MOZHAYETS 4 30 Mar 17:14:44 17:17:59 20° 94° (E) 17:21:24
STARS 30 Mar 17:37:52 17:40:16 14° 289° (WNW) 17:42:27 437.465
JAS-2 30 Mar 17:41:46 17:48:09 48° 263° (W) 17:55:13 435.910
SRMSAT 30 Mar 18:00:08 18:05:37 38° 182° (S) 18:11:05 437.500
SO-50 30 Mar 18:00:24 18:03:23 18° 110° (ESE) 18:06:38 436.795
M-CUBED/EXP-1 PRIME 30 Mar 18:02:12 18:05:49 22° 98° (E) 18:09:29 437.505
CUTE-I 30 Mar 18:19:32 18:23:55 27° 72° (ENE) 18:28:25 437.470
Cubesat XI-IV 30 Mar 18:20:03 18:24:29 28° 72° (ENE) 18:29:02 437.490
AO-7 30 Mar 18:33:26 18:38:54 18° 266° (W) 18:43:47 29.400- 29.500
GONETS M04 30 Mar 18:39:36 18:44:11 17° 85° (E) 18:49:26
JUGNU 30 Mar 18:48:14 18:52:54 23° 194° (SSW) 18:57:31 437.505
MOZHAYETS 4 30 Mar 18:51:15 18:55:14 28° 287° (WNW) 18:59:07
RS-15 30 Mar 19:01:50 19:12:31 64° 112° (ESE) 19:23:17 29.354- 29.394
CUBESAT XI-V 30 Mar 19:05:05 19:08:36 22° 95° (E) 19:12:13 437.345
AUBIESAT-1 30 Mar 19:10:25 19:15:12 65° 287° (WNW) 19:19:44 437.475
BEESAT 3 30 Mar 19:21:22 19:23:51 16° 54° (NE) 19:26:27 437.485
PRISM 30 Mar 19:21:23 19:24:44 24° 97° (E) 19:28:09 437.425
M-CUBED/EXP-1 PRIME 30 Mar 19:36:30 19:40:41 29° 291° (WNW) 19:44:40 437.505
SO-50 30 Mar 19:39:34 19:43:42 32° 303° (WNW) 19:47:55 436.795
SRMSAT 30 Mar 19:49:25 19:54:26 28° 192° (SSW) 19:59:25 437.500
CUTE-I 30 Mar 19:59:21 20:03:56 27° 263° (W) 20:08:24 437.470
Cubesat XI-IV 30 Mar 20:00:00 20:04:32 27° 264° (W) 20:08:58 437.490
AIST 2 30 Mar 20:05:43 20:07:51 14° 53° (NE) 20:10:10 435.215
BEESAT 2 30 Mar 20:22:30 20:26:37 73° 63° (ENE) 20:30:38 435.950
STRAND 1 30 Mar 20:22:52 20:27:59 87° 103° (ESE) 20:33:05 437.568
GONETS M04 30 Mar 20:31:39 20:40:19 73° 277° (W) 20:49:03
CANX-2 30 Mar 20:36:39 20:38:56 15° 72° (ENE) 20:41:26 2200.000
CUBESAT XI-V 30 Mar 20:42:13 20:46:00 24° 287° (WNW) 20:49:38 437.345
BRITE-PL 30 Mar 20:42:25 20:46:48 36° 76° (ENE) 20:50:56 437.365/2234.400
CUSAT 1 30 Mar 20:43:05 20:44:11 12° 97° (E) 20:45:24 437.405
CUTE 1.7 + AOD 2 30 Mar 20:49:39 20:52:37 19° 73° (ENE) 20:55:45 437.475
HO-68 30 Mar 20:51:02 20:57:32 40° 70° (ENE) 21:04:10 435.675
PRISM 30 Mar 20:57:10 21:00:05 18° 288° (WNW) 21:02:50 437.425
BEESAT 3 30 Mar 20:58:23 21:02:00 30° 248° (WSW) 21:05:29 437.485
DOVE 4 30 Mar 21:05:05 21:08:35 24° 75° (ENE) 21:12:03 437.250
AAUSAT CUBESAT 2 30 Mar 21:08:59 21:11:49 19° 73° (ENE) 21:14:48 437.432
SEEDS 30 Mar 21:15:58 21:19:44 34° 75° (ENE) 21:23:35 437.485
RS-15 30 Mar 21:16:21 21:25:38 30° 312° (NW) 21:34:42 29.354- 29.394
GOMX 1 30 Mar 21:21:54 21:26:28 66° 77° (ENE) 21:30:47 467.674
COMPASS 1 30 Mar 21:35:59 21:40:01 50° 76° (ENE) 21:44:06 437.405
DANDE 30 Mar 21:38:55 21:42:25 82° 100° (E) 21:45:16 436.750
SRMSAT 30 Mar 21:40:08 21:43:11 14° 199° (SSW) 21:46:05 437.500
AIST 2 30 Mar 21:42:44 21:46:39 38° 248° (WSW) 21:50:28 435.215
Oscar 11 30 Mar 21:44:17 21:47:37 23° 73° (ENE) 21:51:05 145.826/435.025
FUNcube-1 30 Mar 21:58:48 22:01:05 15° 72° (ENE) 22:03:34 145.935
UWE-3 30 Mar 22:05:48 22:09:07 24° 74° (ENE) 22:12:32 435.000/436.395/437.385
ISS 30 Mar 22:09:29 22:12:45 83° 315° (NW) 22:16:00 145.825
CINEMA 3 30 Mar 22:10:38 22:14:52 78° 78° (ENE) 22:19:01 145.822/145.860
CANX-2 30 Mar 22:10:53 22:14:39 31° 263° (W) 22:18:24 2200.000
ZACube-1 30 Mar 22:11:18 22:14:29 22° 73° (ENE) 22:17:46 437.345
CUBEBUG 2 30 Mar 22:13:19 22:17:10 38° 75° (ENE) 22:21:02 437.445
DELFI C3 30 Mar 22:14:02 22:17:48 39° 76° (ENE) 22:21:38 145.870
BRITE-PL 30 Mar 22:22:32 22:25:24 15° 265° (W) 22:27:55 437.365/2234.400
CUTE 1.7 + AOD 2 30 Mar 22:25:00 22:28:26 23° 264° (W) 22:31:47 437.475
HO-68 30 Mar 22:39:14 22:45:21 29° 263° (W) 22:51:17 435.675
DOVE 4 30 Mar 22:43:09 22:46:21 19° 264° (W) 22:49:19 437.250
AAUSAT CUBESAT 2 30 Mar 22:43:56 22:47:20 24° 264° (W) 22:50:40 437.432
HUMSAT D 30 Mar 22:50:12 22:53:49 31° 75° (ENE) 22:57:29 437.325/437.525
UKube-1 30 Mar 22:50:21 22:54:33 53° 76° (ENE) 22:58:48 .
SEEDS 30 Mar 22:53:41 22:55:42 13° 267° (W) 22:57:28 437.485
ESTCUBE 1 30 Mar 22:55:06 22:56:18 11° 70° (ENE) 22:57:49 437.505/2401.250
DX 1 30 Mar 23:02:21 23:06:44 83° 77° (ENE) 23:11:06 434.975-435.025
ANTELSAT 30 Mar 23:10:18 23:13:44 21° 95° (E) 23:17:20 437.575/2403.000
50 SAT 30 Mar 23:19:16 23:23:00 47° 76° (ENE) 23:26:48 437.505
Oscar 11 30 Mar 23:20:28 23:23:45 20° 265° (W) 23:26:55 145.826/435.025
FUNcube-1 30 Mar 23:33:38 23:37:15 28° 263° (W) 23:40:48 145.935
POPSAT HIP 1 30 Mar 23:34:45 23:37:29 17° 95° (E) 23:40:23 437.405
UWE-3 30 Mar 23:42:51 23:45:41 17° 266° (W) 23:48:21 435.000/436.395/437.385
NANOSAT C BR1 30 Mar 23:44:14 23:47:33 23° 96° (E) 23:50:58 145.865
CUBEBUG 1 30 Mar 23:44:17 23:48:23 39° 75° (ENE) 23:52:31 437.445
ZACube-1 30 Mar 23:47:49 23:50:50 19° 265° (W) 23:53:42 437.345
VELOX 1 30 Mar 23:48:21 23:52:47 71° 258° (WSW) 23:57:13 145.980
POLYITAN 1 30 Mar 23:49:36 23:53:13 28° 97° (E) 23:56:55 437.675
DELFI C3 30 Mar 23:52:48 23:53:13 10° 268° (W) 23:53:19 145.870
CUBEBUG 2 30 Mar 23:53:08 23:54:06 10° 268° (W) 23:54:46 437.445
AISAT 30 Mar 23:53:46 23:58:10 58° 259° (W) 00:02:32 437.250
UNISAT 6 31 Mar 00:05:16 00:09:54 83° 285° (WNW) 00:14:37 437.425
TIGRISAT 31 Mar 00:14:50 00:19:25 65° 283° (WNW) 00:24:03 435.000
QB50P1 31 Mar 00:25:25 00:29:39 83° 101° (ESE) 00:33:54 145.935-145.965
DUCHIFAT 1 31 Mar 00:26:22 00:30:36 84° 102° (ESE) 00:34:49 145.980
HUMSAT D 31 Mar 00:27:43 00:29:43 13° 267° (W) 00:31:28 437.325/437.525
ESTCUBE 1 31 Mar 00:28:25 00:32:49 49° 260° (W) 00:37:14 437.505/2401.250
YUBILEINY 31 Mar 00:37:50 00:44:26 24° 73° (ENE) 00:51:22 435.215
QB50P2 31 Mar 00:40:51 00:45:02 59° 284° (WNW) 00:49:13 145.880/145.840
ANTELSAT 31 Mar 00:46:34 00:50:29 27° 287° (WNW) 00:54:22 437.575/2403.000
BUGSAT 1 31 Mar 01:00:19 01:04:12 48° 284° (WNW) 01:08:06 437.445
PCSat 31 Mar 01:00:58 01:06:24 75° 67° (ENE) 01:11:47 145.827
TISAT 1 31 Mar 01:07:00 01:11:13 79° 78° (ENE) 01:15:26 437.305
POPSAT HIP 1 31 Mar 01:09:49 01:13:23 26° 286° (WNW) 01:16:53 437.405
